EW2270 Weather Reports


time (UTC)temp
C
wind
direction
speed
KPH
gust
KPH
rain 1hr
cm
rain 24hr
cm
rain mn
cm
humidity
%
barometer
mb
20260902150018 13 157 0.0 0.0 0.00 0.00 0.00 66 1008.3
20260902144520 12 157 0.0 3.2 0.00 0.00 0.00 67 1008.5
20260902143017 12 186 6.4 9.7 0.00 0.00 0.00 69 1008.5
20260902141516 12 148 3.2 6.4 0.00 0.00 0.00 68 1008.4
20260902140013 12 141 3.2 4.8 0.00 0.00 0.00 68 1008.5
20260902134513 12 193 0.0 6.4 0.00 0.00 0.00 68 1008.5
20260902133012 13 186 3.2 4.8 0.00 0.00 0.00 66 1008.5
20260902131511 13 169 4.8 8.0 0.00 0.00 0.00 67 1008.5
20260902130010 12 165 4.8 6.4 0.00 0.00 0.00 69 1008.2
20260902124509 12 233 1.6 4.8 0.00 0.00 0.00 68 1008.2
20260902123009 12 238 1.6 8.0 0.00 0.00 0.00 68 1008.2
20260902121506 12 203 6.4 9.7 0.00 0.00 0.00 69 1008.1
20260902120007 13 140 3.2 4.8 0.00 0.00 0.00 67 1007.7
20260902114501 13 158 0.0 3.2 0.00 0.00 0.00 66 1007.6
20260902113004 14 158 0.0 4.8 0.00 0.00 0.00 65 1007.7
20260902111606 14 158 1.6 4.8 0.00 0.00 0.00 66 1008.1
20260902110059 14 158 0.0 3.2 0.00 0.00 0.00 66 1008.4
20260902104558 15 153 3.2 8.0 0.00 0.00 0.00 66 1008.7
20260902103056 14 159 6.4 11.3 0.00 0.00 0.00 66 1008.5
20260902101555 13 146 4.8 8.0 0.00 0.00 0.00 67 1008.2
20260902100104 13 149 8.0 9.7 0.00 0.00 0.00 67 1008.1
20260902094551 13 153 1.6 6.4 0.00 0.00 0.00 66 1007.9
20260902093048 14 127 3.2 9.7 0.00 0.00 0.00 64 1008.0
20260902091550 15 176 0.0 9.7 0.00 0.00 0.00 62 1008.0
20260902090043 16 210 3.2 14.5 0.00 0.00 0.00 61 1008.3
20260902084539 16 236 6.4 12.9 0.00 0.00 0.00 60 1008.4
20260902083038 16 207 4.8 19.3 0.00 0.00 0.00 59 1007.9
20260902081538 16 203 11.3 20.9 0.00 0.00 0.00 59 1008.4
20260902080035 16 199 6.4 19.3 0.00 0.00 0.00 58 1008.3
20260902074538 16 202 9.7 17.7 0.00 0.00 0.00 57 1008.4
20260902073032 16 233 11.3 25.7 0.00 0.00 0.00 57 1008.0
20260902071526 17 203 11.3 25.7 0.00 0.00 0.00 56 1008.1
20260902070023 17 221 12.9 24.1 0.00 0.00 0.00 55 1007.9
20260902064522 17 221 8.0 19.3 0.00 0.00 0.00 55 1007.7
20260902063033 17 195 11.3 24.1 0.00 0.00 0.00 54 1007.4
20260902061523 17 203 8.0 25.7 0.00 0.00 0.00 53 1007.4
20260902060018 17 200 8.0 12.9 0.00 0.00 0.00 53 1007.4
20260902054524 17 207 3.2 16.1 0.00 0.00 0.00 50 1007.4
20260902053016 18 232 14.5 27.4 0.00 0.00 0.00 48 1007.1
20260902051515 18 229 11.3 22.5 0.00 0.00 0.00 48 1007.1
20260902050043 19 210 14.5 27.4 0.00 0.00 0.00 45 1006.9
20260902044513 20 221 9.7 22.5 0.00 0.00 0.00 44 1006.7
20260902043027 20 219 8.0 29.0 0.00 0.00 0.00 43 1006.5
20260902041513 20 200 11.3 17.7 0.00 0.00 0.00 42 1006.2
20260902040012 19 156 4.8 8.0 0.00 0.00 0.00 42 1005.8
20260902034511 20 147 4.8 9.7 0.00 0.00 0.00 42 1005.4
20260902033010 20 142 4.8 11.3 0.00 0.00 0.00 40 1005.2
20260902031509 21 247 4.8 12.9 0.00 0.00 0.00 40 1004.7
20260902030009 21 255 8.0 12.9 0.00 0.00 0.00 38 1004.5
20260902024508 22 243 9.7 14.5 0.00 0.00 0.00 36 1004.2
20260902023008 23 272 9.7 17.7 0.00 0.00 0.00 34 1004.0
20260902021507 23 270 8.0 16.1 0.00 0.00 0.00 35 1003.8
20260902020007 24 280 8.0 12.9 0.00 0.00 0.00 34 1003.8
20260902014506 25 296 3.2 4.8 0.00 0.00 0.00 34 1003.8
20260902013005 25 314 3.2 6.4 0.00 0.00 0.00 34 1003.6
20260902011504 25 320 1.6 8.0 0.00 0.00 0.00 34 1003.6
20260902010006 26 315 3.2 8.0 0.00 0.00 0.00 34 1003.6
20260902004503 26 291 4.8 9.7 0.00 0.00 0.00 33 1003.6
20260902003004 26 326 4.8 12.9 0.00 0.00 0.00 33 1003.4
20260902001501 26 288 6.4 11.3 0.00 0.00 0.00 32 1003.5
20260902000104 26 293 4.8 12.9 0.00 0.00 0.00 32 1003.5
20260901234600 26 299 3.2 11.3 0.00 0.00 0.00 32 1003.5
20260901233059 26 307 1.6 12.9 0.00 0.00 0.00 32 1003.5
20260901231557 26 333 9.7 16.1 0.00 0.00 0.00 33 1003.6
20260901230104 26 345 3.2 16.1 0.00 0.00 0.00 32 1003.8
20260901224554 26 288 6.4 19.3 0.00 0.00 0.00 33 1003.8
20260901223103 26 343 4.8 20.9 0.00 0.00 0.00 33 1004.0
20260901221547 25 255 6.4 14.5 0.00 0.00 0.00 35 1004.2
20260901220105 25 333 6.4 11.3 0.00 0.00 0.00 36 1004.3
20260901214543 25 307 8.0 14.5 0.00 0.00 0.00 37 1004.4
20260901213046 25 39 0.0 8.0 0.00 0.00 0.00 38 1004.6
20260901211539 25 244 0.0 6.4 0.00 0.00 0.00 38 1004.7
20260901210038 24 301 3.2 9.7 0.00 0.00 0.00 39 1004.7
20260901204539 24 250 4.8 9.7 0.00 0.00 0.00 39 1005.2
20260901203037 23 207 8.0 12.9 0.00 0.00 0.00 37 1005.4
20260901201530 23 242 4.8 16.1 0.00 0.00 0.00 38 1005.5
20260901200029 23 292 6.4 11.3 0.00 0.00 0.00 38 1005.6
20260901194525 22 312 0.0 14.5 0.00 0.00 0.00 44 1005.9
20260901193030 21 262 14.5 24.1 0.00 0.00 0.00 45 1006.0
20260901191522 21 294 12.9 16.1 0.00 0.00 0.00 40 1005.7
20260901190019 21 293 8.0 25.7 0.00 0.00 0.00 40 1005.5
20260901184532 21 6 3.2 11.3 0.00 0.00 0.00 41 1006.3
20260901183018 21 319 8.0 12.9 0.00 0.00 0.00 39 1006.1
20260901181521 21 322 4.8 8.0 0.00 0.00 0.00 39 1006.5
20260901180015 20 1 3.2 8.0 0.00 0.00 0.00 38 1006.6
20260901174534 20 46 6.4 12.9 0.00 0.00 0.00 39 1006.0
20260901173008 19 79 4.8 8.0 0.00 0.00 0.00 40 1006.2
20260901171505 19 41 0.0 8.0 0.00 0.00 0.00 42 1006.6
20260901170003 18 46 0.0 3.2 0.00 0.00 0.00 41 1006.9
20260901164503 18 338 1.6 4.8 0.00 0.00 0.00 42 1006.5
20260901163101 18 249 4.8 9.7 0.00 0.00 0.00 45 1006.5
20260901161614 18 7 6.4 9.7 0.00 0.00 0.00 42 1005.8
20260901160115 18 25 1.6 6.4 0.00 0.00 0.00 42 1006.1
20260901154558 17 349 3.2 4.8 0.00 0.00 0.00 44 1006.1
20260901153110 16 118 0.0 6.4 0.00 0.00 0.00 47 1006.3
20260901151558 13 102 3.2 4.8 0.00 0.00 0.00 53 1006.5